Home > Time Zones > World Clock > Weather > Italy > Milan > Past weeks

Flag for Italy Weather past 2 weeks in Milan, Italy

52 °F


Feels Like: 52 °F
Forecast: 27 / 42 °F
Wind: 2 mph from North

Location: Milan / Linate

Current Time: Nov 27, 2015 at 1:39:36 PM

Latest Report: Nov 27, 2015 at 12:50 PM

Visibility: 10 mi

Pressure: 29.89 "Hg

Humidity: 41%

Dew point: 28 °F

Location of MilanLocation

Historic Weather in Milan — Graph


Milan temperature yesterday

Maximum temperature yesterday: 48 °F (at 3:20 PM)
Minimum temperature yesterday: 30 °F (at 6:20 AM)
Average temperature yesterday: 37 °F

Past Weeks' High & Low Weather Summary

High64 °F (Nov 12, 1:50 PM)100% (Nov 12, 9:20 PM)30.36 "Hg (Nov 12, 9:20 PM)
Low27 °F (Nov 27, 3:50 AM)23% (Nov 22, 12:50 PM)29.18 "Hg (Nov 21, 2:20 PM)
Average46 °F90%30.01 "Hg
* Reported Nov 12 12:20 PM — Nov 27 12:20 PM, Milan, Weather by CustomWeather, © 2015

Note: Actual official high and low records may vary slightly from our data, if they occured in-between our weather recording intervals... More about our weather records


Milan weather history for previous 24 hours

Time TempWeatherWind HumidityBarometerVisibility
12:20 PM
Fri, Nov 27
52 °FSunny.2 mph44%29.89 "Hg10 mi
11:50 AM52 °FSunny.1 mph47%29.89 "Hg10 mi
11:20 AM48 °FClear.No wind58%29.92 "Hg4 mi
10:50 AM46 °FClear.No wind57%29.92 "Hg4 mi
10:20 AM45 °FClear.1 mph66%29.92 "Hg4 mi
9:50 AM41 °FClear.1 mph81%29.92 "Hg4 mi
9:20 AM37 °FClear.No wind93%29.92 "Hg4 mi
8:50 AM36 °FFog.No wind93%29.92 "Hg4 mi
8:20 AM32 °FFog.No wind93%29.92 "Hg4 mi
7:50 AM30 °FSunny.1 mph100%29.89 "Hg1 mi
7:20 AM28 °FIce fog.No wind100%29.89 "Hg1 mi
6:50 AM28 °FIce fog.No wind100%29.89 "Hg0 mi
6:20 AM28 °FIce fog.1 mph100%29.89 "Hg1 mi
5:50 AM27 °FIce fog.1 mph100%29.89 "Hg0 mi
4:50 AM28 °FIce fog.1 mph100%29.86 "Hg0 mi
4:20 AM28 °FIce fog.2 mph100%29.89 "Hg0 mi
3:50 AM27 °FIce fog.No wind100%29.86 "Hg0 mi
3:20 AM28 °FIce fog.1 mph93%29.89 "Hg0 mi
2:50 AM30 °FIce fog.No wind93%29.89 "Hg0 mi
2:20 AM28 °FIce fog.1 mph93%29.89 "Hg0 mi
1:50 AM32 °FIce fog.1 mph93%29.86 "Hg0 mi
1:20 AM30 °FIce fog.1 mph100%29.86 "Hg0 mi
12:50 AM32 °FIce fog.No wind93%29.86 "Hg0 mi
12:20 AM32 °FPassing clouds.1 mph100%29.86 "Hg1 mi
11:50 PM
Thu, Nov 26
32 °FPassing clouds.No wind100%29.86 "Hg1 mi
10:50 PM34 °FLight fog.No wind100%29.86 "Hg1 mi
10:20 PM34 °FLight fog.No wind93%29.86 "Hg4 mi
9:50 PM36 °FFog.1 mph93%29.86 "Hg4 mi
9:20 PM36 °FFog.2 mph100%29.83 "Hg4 mi
8:50 PM34 °FLight fog.2 mph100%29.83 "Hg4 mi
8:20 PM34 °FClear.2 mph100%29.80 "Hg4 mi
7:50 PM37 °FClear.No wind87%29.80 "Hg4 mi
7:20 PM37 °FClear.No wind93%29.77 "Hg4 mi
6:50 PM37 °FClear.1 mph93%29.77 "Hg4 mi
6:20 PM37 °FClear.No wind93%29.77 "Hg4 mi
5:50 PM41 °FClear.2 mph81%29.74 "Hg4 mi
5:20 PM41 °FClear.3 mph81%29.74 "Hg4 mi
4:50 PM43 °FClear.2 mph81%29.74 "Hg4 mi
4:20 PM45 °FClear.3 mph76%29.74 "Hg6 mi
3:50 PM46 °FClear.3 mph71%29.71 "Hg6 mi
3:20 PM48 °FClear.3 mph66%29.71 "Hg6 mi
2:50 PM46 °FClear.3 mph71%29.71 "Hg6 mi
2:20 PM46 °FClear.3 mph71%29.71 "Hg5 mi
1:50 PM46 °FClear.3 mph71%29.71 "Hg4 mi
1:20 PM46 °FClear.5 mph66%29.71 "Hg4 mi
Weather by CustomWeather, © 2015

See weather overviewHow to use our weather pages